Location: Greenwich
(51.4790°N, 0.0090°E)
Time: 14:27:27
(UTC+01:00)

Altair - Pass Details

Date: 20 June 2025
Orbit: 1502 x 1682 km, 47.2° (Epoch: 19 July)

Event Time Altitude Azimuth Distance (km) Brightness Sun altitude
Rises 02:09:05 0° 256° (WSW) 4,656 9.7 -13.6°
Reaches altitude 10° 02:12:05 10° 255° (WSW) 3,689 9.2 -13.5°
Maximum altitude 02:21:18 69° 175° (S) 1,654 7.5 -13.1°
Drops below altitude 10° 02:30:53 10° 95° (E) 3,824 9.8 -12.6°
Sets 02:34:04 0° 93° (E) 4,834 10.4 -12.4°
